Wind_Speed
48 48 47 46 45 44 43 43 42 42 42 42 41 42 42 43 43 44 44 43 43 44 47 47 46 51 52 51 51 51 52 54 55 54 54 55 57 60 62 62 63 63 64 65 66 67 68 68 69 69 69 70 71 71 72 73 74 74 75 75 76 77 78 79 80 81 82 83 84 86 87 88 88 89 90 91 92 93 94 96 97 98 98 99 101 103
47 46 46 44 43 42 42 41 41 41 40 40 40 40 41 41 41 43 43 43 43 43 46 46 46 51 51 51 51 50 51 53 54 53 53 54 56 58 60 61 62 62 63 64 65 66 67 66 67 67 68 68 69 69 70 71 72 72 73 74 74 75 77 78 79 80 81 81 82 83 84 85 86 86 87 88 89 90 91 92 93 93 94 95 96 98
46 44 43 43 42 41 40 40 40 40 40 40 40 40 40 40 41 42 43 43 43 43 45 44 45 50 51 51 52 50 50 51 51 52 52 53 54 55 57 59 60 60 61 62 62 63 64 64 64 65 66 66 66 67 68 68 69 69 70 72 72 73 74 75 76 78 78 79 80 81 81 82 83 83 84 85 86 87 88 89 90 90 91 92 93 94
44 43 42 41 40 40 40 40 40 40 41 40 40 41 41 41 41 42 43 43 44 43 44 44 44 49 52 51 52 51 49 49 48 50 52 52 52 53 54 56 58 59 59 59 60 60 61 62 62 63 63 64 64 64 65 66 66 67 68 69 70 70 71 72 73 74 75 75 76 77 77 78 79 79 80 81 82 83 84 84 85 86 87 87 88 89
42 42 41 40 40 39 39 40 40 40 41 41 41 41 41 42 41 42 43 44 45 44 44 43 42 48 53 52 52 52 50 48 47 48 50 50 51 52 53 55 56 57 57 58 58 59 59 60 60 61 62 62 62 62 63 63 64 65 65 66 67 68 68 69 70 70 71 72 72 72 73 74 75 76 77 78 79 79 80 80 81 82 83 84 85 85
41 41 41 40 40 39 39 39 40 40 41 41 41 41 41 42 41 42 42 43 45 46 46 43 39 44 53 55 53 54 52 50 49 48 48 49 49 50 52 54 55 56 57 58 58 58 58 59 60 61 61 60 60 60 61 61 62 63 63 64 65 65 66 66 67 68 69 69 70 70 71 72 73 74 75 76 77 77 78 78 79 80 81 82 83 83
40 40 40 40 40 40 40 40 40 40 41 41 41 41 41 42 42 42 42 42 43 46 49 46 40 40 50 57 57 55 53 53 52 50 49 49 48 49 51 52 54 55 57 57 58 58 59 59 60 61 61 60 60 61 61 61 62 63 63 64 65 65 66 67 67 68 68 69 69 70 70 71 72 73 74 75 76 77 78 78 78 79 80 81 82 83
39 39 39 39 40 40 40 40 41 41 41 42 43 42 43 43 43 43 43 43 43 45 49 50 44 41 45 55 59 57 56 55 54 53 52 51 50 50 52 53 54 55 57 58 57 58 58 60 62 63 63 62 62 62 63 64 64 64 65 65 66 67 67 68 69 69 70 70 70 71 72 72 73 74 75 76 77 79 79 80 80 81 82 82 83 84
39 38 38 38 39 39 40 40 41 42 42 43 43 44 44 44 44 45 45 46 45 45 50 52 50 46 46 54 59 58 59 59 57 56 54 54 53 52 54 55 55 57 58 59 59 58 58 60 62 64 65 64 64 64 64 65 66 67 67 67 68 69 69 70 71 71 72 72 72 73 74 75 75 76 76 77 78 80 81 82 83 83 84 84 85 86
39 39 38 38 39 39 39 39 40 41 41 43 43 44 45 45 45 46 46 47 47 47 51 53 53 51 49 56 61 59 61 61 59 59 57 56 56 55 55 56 57 59 60 61 61 61 61 62 64 66 67 67 65 65 66 67 68 69 69 69 70 71 72 72 73 74 74 74 75 75 76 77 78 78 79 79 80 81 82 83 84 85 85 86 86 86
40 40 39 39 39 39 39 39 40 41 41 42 43 44 45 45 44 45 46 47 46 47 50 51 54 54 52 57 62 60 61 62 61 60 59 58 58 58 58 58 60 61 63 64 64 64 65 65 66 68 70 70 69 67 67 67 69 70 71 71 72 73 74 74 75 75 76 76 77 77 78 79 80 81 81 82 82 83 84 85 85 86 86 87 87 87
40 40 40 40 40 39 39 39 39 39 40 41 42 42 44 44 43 44 47 47 46 46 48 49 52 53 53 57 61 61 61 62 61 60 59 58 58 58 58 59 61 63 64 66 67 67 68 68 69 71 72 74 74 72 70 69 70 72 73 74 74 75 76 77 77 77 78 78 79 80 80 81 82 83 83 84 84 85 85 86 87 87 88 88 88 89
42 41 41 41 41 40 40 39 39 39 39 40 40 39 40 41 39 40 44 44 45 45 46 48 50 51 53 58 62 61 61 61 60 58 58 58 57 57 57 58 61 62 63 65 67 68 68 70 71 72 74 75 76 76 74 73 72 73 75 75 76 77 78 79 79 79 80 80 81 81 82 83 83 83 84 84 85 85 86 87 87 88 88 88 88 89
45 43 43 43 43 42 42 41 41 41 41 41 41 40 39 39 36 35 38 39 39 40 41 44 46 46 49 57 63 63 61 61 60 58 57 56 56 56 56 57 59 61 62 63 66 67 67 69 70 71 73 74 75 76 77 76 75 74 75 76 76 77 78 79 79 80 80 81 81 81 82 82 82 83 83 84 84 85 86 86 87 87 88 88 88 88
46 46 45 44 44 44 44 44 43 42 42 43 44 43 42 42 38 35 36 36 35 35 36 39 40 40 42 50 61 63 59 58 58 58 58 55 54 54 54 55 57 59 60 61 63 64 65 66 67 69 70 72 73 75 76 77 76 76 75 76 76 77 78 78 79 79 80 80 81 81 81 81 82 82 83 83 83 84 85 86 87 87 88 88 89 89
46 48 49 47 47 47 46 47 45 44 44 44 45 45 43 44 43 39 37 38 36 32 33 37 38 39 39 45 59 64 59 57 55 54 55 55 53 53 53 53 54 56 58 59 60 61 63 64 65 66 67 69 70 71 73 74 75 75 75 75 76 76 77 78 78 79 79 80 80 80 81 81 82 82 83 83 84 84 85 86 87 88 88 89 90 91
45 48 51 51 51 51 51 51 51 49 48 47 48 47 45 45 46 43 39 39 39 33 31 34 36 38 40 44 56 64 64 61 56 51 51 52 52 52 53 53 54 55 57 58 59 60 61 62 63 64 65 67 68 69 71 72 73 73 74 74 75 75 76 77 77 78 78 79 80 80 81 81 82 83 83 84 85 85 86 87 88 89 90 90 91 92
45 46 51 53 53 54 55 56 56 56 54 53 53 52 51 50 50 49 45 44 44 38 32 33 36 38 41 46 54 61 65 66 60 52 48 49 50 50 51 53 53 55 56 57 59 60 61 61 62 63 64 65 67 68 69 70 71 72 72 73 74 75 76 77 77 78 79 80 80 81 81 82 83 84 85 85 86 86 87 88 89 90 91 93 94 95
48 45 49 54 55 55 58 59 59 60 60 59 59 58 58 58 56 55 53 52 51 45 38 35 35 37 42 50 58 61 64 66 63 57 52 52 53 52 51 53 54 55 56 58 59 60 61 62 62 63 64 65 66 67 68 69 70 71 72 73 74 75 77 78 79 80 80 81 81 82 83 83 84 85 86 86 87 87 88 89 91 93 94 96 97 98
51 47 46 50 54 55 58 60 60 62 63 63 62 61 63 64 62 60 58 57 57 53 46 41 36 36 42 50 59 61 62 66 67 64 60 58 58 56 55 57 58 58 59 59 60 61 63 64 64 65 66 66 67 68 69 69 70 71 72 73 75 76 77 79 80 81 81 82 83 83 84 85 86 86 87 87 88 89 90 92 94 96 97 98 99 101
55 51 47 48 51 53 56 60 61 62 65 66 64 64 66 68 67 66 62 59 62 59 54 50 38 32 40 48 55 61 64 68 69 67 65 64 62 61 61 62 64 64 64 63 63 63 64 65 66 67 69 70 71 71 72 72 73 73 74 75 76 78 79 80 81 82 83 84 84 85 86 87 88 89 89 90 90 92 93 95 98 99 100 101 102 104
59 56 51 48 50 52 56 59 61 63 66 66 65 65 67 69 70 72 67 62 64 61 60 59 37 21 36 49 53 60 67 72 74 70 68 67 65 65 65 66 69 70 71 70 69 68 67 67 68 69 71 73 74 75 76 77 77 77 78 79 80 81 82 83 84 85 86 87 88 88 89 90 92 92 93 93 94 95 96 98 101 102 102 103 105 106
62 60 56 52 51 52 55 58 61 65 67 65 64 64 67 69 70 76 74 69 69 63 63 68 43 22 40 56 55 61 68 73 78 76 71 70 69 68 67 69 72 75 76 77 76 75 73 72 72 72 73 75 76 78 80 81 81 82 83 84 85 85 86 87 88 89 90 91 92 92 93 94 95 96 96 97 97 98 99 101 103 103 104 105 106 107
65 64 62 58 55 53 54 58 62 67 69 67 66 66 68 70 71 76 77 76 76 67 68 77 59 39 52 64 61 64 70 75 81 79 75 72 71 72 72 73 76 78 79 81 81 81 79 78 77 76 76 77 79 81 82 83 84 85 86 87 88 89 90 91 92 93 94 94 95 95 96 97 98 98 99 99 99 100 101 103 104 104 105 106 106 107
68 68 68 67 64 59 56 59 63 67 70 69 68 68 70 72 74 78 80 82 80 72 75 84 73 59 65 70 67 70 74 78 82 80 77 74 74 75 76 78 80 81 83 84 85 85 84 83 82 80 80 80 81 83 84 85 86 86 87 89 90 92 93 94 95 95 96 97 98 98 99 100 100 101 101 101 101 101 102 103 104 105 105 106 106 107
71 71 71 73 74 69 65 65 68 71 73 72 70 71 73 74 78 80 82 85 83 80 83 86 81 76 75 73 75 78 80 83 83 81 79 78 78 79 80 81 83 84 87 87 87 88 87 86 85 84 83 83 84 84 85 85 86 87 88 89 91 93 94 95 96 97 98 99 99 100 100 101 102 102 102 102 102 102 103 103 104 105 106 106 106 107
75 73 73 76 78 76 73 74 76 79 80 78 76 76 77 79 82 84 86 87 88 91 91 85 85 89 84 79 84 87 87 88 86 85 85 83 84 84 83 84 85 87 89 90 90 89 87 87 86 86 85 85 85 85 85 85 86 86 88 90 91 93 94 96 97 98 99 99 100 100 101 101 102 102 102 102 102 103 104 104 105 105 106 106 107 107
80 77 75 79 81 79 78 78 81 85 86 84 83 82 83 86 88 90 92 91 92 98 98 89 89 94 91 88 92 94 93 92 90 90 91 90 90 89 88 88 89 90 91 91 91 90 88 87 87 86 86 85 85 85 84 85 86 87 89 90 92 93 94 96 97 98 99 99 99 100 101 101 102 102 102 102 103 104 104 104 105 106 106 107 107 107
84 82 79 83 85 82 81 83 86 89 89 89 88 87 88 91 92 95 96 95 96 101 101 95 95 97 95 95 98 98 97 95 94 95 95 94 94 93 92 93 92 92 93 93 92 91 89 89 88 87 86 85 85 85 85 86 87 89 91 92 93 94 95 97 98 98 99 99 100 100 101 102 102 102 103 103 104 104 105 105 106 106 106 106 106 105
88 86 84 87 90 86 84 87 91 93 93 91 90 90 92 93 94 97 97 97 99 102 101 100 101 100 98 99 100 100 99 99 99 99 98 98 98 97 96 96 96 95 95 95 94 93 92 92 90 89 88 87 87 87 87 88 90 91 93 94 95 97 98 99 100 100 101 101 101 102 103 103 104 104 104 105 105 105 105 105 105 105 105 104 103 101
90 90 89 93 95 90 87 91 95 95 94 92 90 91 94 94 94 96 97 99 100 100 100 102 103 102 100 100 100 100 100 101 101 101 101 101 101 101 100 99 99 99 98 97 97 96 95 94 92 91 90 89 89 89 89 90 92 93 94 95 97 98 99 101 102 102 103 103 104 104 104 105 105 105 105 105 104 104 104 104 103 103 102 101 99 98
93 95 94 98 99 94 90 94 96 95 94 92 92 93 94 94 94 94 95 97 98 98 98 100 101 101 99 98 99 99 99 99 100 101 102 102 102 102 101 100 100 100 99 98 97 96 95 94 92 91 90 89 90 90 90 91 92 93 94 95 97 98 99 100 101 102 103 103 103 103 104 104 104 103 103 102 102 102 101 101 101 100 99 98 97 96
97 99 99 101 102 96 93 96 97 95 93 91 92 93 92 92 93 93 94 95 95 96 96 97 98 98 97 97 96 96 96 97 98 99 100 100 100 100 99 99 99 98 97 96 95 94 93 92 91 91 90 90 90 90 90 90 91 92 93 94 95 96 97 98 99 100 100 101 101 101 101 101 101 100 100 99 100 100 100 99 99 98 97 96 96 95
102 103 102 103 103 98 95 96 97 95 92 92 92 93 92 92 94 94 95 96 96 96 97 97 97 97 97 96 95 94 94 94 96 98 100 100 99 98 98 98 97 97 96 95 94 93 92 92 92 92 91 91 91 90 90 91 91 92 93 94 95 95 96 97 98 98 98 99 99 99 99 99 98 98 98 99 99 99 98 98 98 97 96 95 95 95
103 103 103 102 102 99 94 94 94 93 91 93 93 92 92 94 95 96 96 96 96 97 97 98 98 98 97 97 96 95 94 94 95 98 100 100 100 99 98 97 96 96 95 95 94 94 94 94 94 94 94 93 93 93 92 92 93 93 94 95 96 96 97 97 97 98 98 98 99 99 98 98 97 98 98 98 99 98 98 98 97 96 95 94 94 95
103 102 102 100 98 95 92 91 92 91 91 92 92 92 93 95 97 99 100 99 98 99 99 100 100 99 99 99 99 98 96 94 95 97 100 100 100 100 99 98 96 96 96 96 96 96 96 96 96 96 96 96 96 96 96 95 95 96 96 96 97 97 98 98 98 98 98 99 99 98 98 97 97 98 98 98 98 98 97 97 96 95 95 94 94 95
99 99 98 95 93 91 90 90 89 90 91 92 92 93 95 96 98 100 102 101 101 101 101 101 101 101 101 101 101 100 98 96 95 96 99 101 100 100 100 100 99 98 97 97 97 97 97 97 97 97 97 97 97 97 97 97 97 97 97 97 97 98 98 98 98 98 98 98 97 97 96 96 97 97 97 97 97 97 96 96 95 95 94 94 94 94
93 92 91 90 89 88 90 90 89 90 92 91 91 93 94 95 96 98 99 99 98 99 99 99 99 100 100 100 100 99 99 97 95 95 98 99 100 100 101 100 100 100 99 98 97 97 97 97 97 96 96 97 97 97 97 97 97 97 97 97 97 97 97 97 97 97 97 96 95 95 95 95 96 96 96 96 96 95 95 95 95 94 93 93 93 93
88 86 85 86 85 85 87 88 89 92 94 93 92 93 93 94 94 95 96 95 93 94 95 95 95 96 96 96 96 95 95 94 91 90 93 95 96 97 98 98 98 99 99 99 98 97 96 95 96 96 96 96 96 96 96 96 96 97 96 96 97 96 96 96 96 96 95 94 93 94 94 95 95 95 95 95 94 94 94 94 93 92 92 91 91 91
82 80 80 80 81 82 85 87 90 94 95 94 94 94 93 93 93 93 93 90 88 89 91 90 90 91 91 91 91 91 91 90 87 85 86 89 90 92 93 94 94 94 94 95 96 96 95 94 93 93 94 94 95 95 95 95 96 96 96 96 96 96 96 96 96 94 93 93 93 93 94 94 93 93 93 93 93 92 92 92 91 90 89 89 89 88
75 74 76 79 81 84 87 91 93 95 96 95 94 93 91 90 90 90 88 85 84 84 85 85 86 86 86 86 85 85 85 85 84 82 81 82 83 84 86 88 88 88 88 89 90 91 91 90 89 89 90 91 91 92 92 93 93 94 94 94 94 95 95 95 94 93 92 92 92 92 92 92 92 91 91 91 90 90 90 89 88 88 87 86 86 86
74 75 78 82 85 86 90 94 96 96 96 95 93 92 90 88 86 84 83 81 80 79 78 79 80 81 81 81 80 80 79 79 80 79 77 77 77 77 78 80 81 82 83 83 84 84 84 83 83 83 84 85 86 86 87 88 88 89 89 90 90 91 91 90 90 90 89 89 89 89 89 89 89 88 88 87 87 87 87 86 85 84 84 84 84 84
77 79 81 84 87 89 91 95 97 96 95 93 91 90 89 88 85 82 79 78 78 79 77 76 76 77 77 77 76 76 76 75 76 76 75 74 75 75 75 75 76 77 77 78 79 80 79 78 77 77 78 78 79 80 80 81 81 82 83 83 84 85 85 85 85 85 85 85 85 85 85 85 85 85 84 84 83 83 83 83 82 81 81 82 82 82
81 82 84 86 89 92 93 94 95 95 94 92 89 86 83 82 81 80 77 75 75 76 76 75 74 74 74 74 73 72 72 72 73 72 72 72 72 73 73 73 73 73 72 73 73 73 73 72 71 72 72 72 73 74 75 75 75 76 76 77 78 78 79 80 80 80 80 80 80 80 81 81 81 81 81 80 80 79 79 79 79 79 80 80 80 79
83 84 86 87 90 92 94 96 96 95 94 93 90 87 82 79 78 76 75 73 71 71 72 72 71 70 70 71 70 69 68 68 68 67 68 68 69 70 71 71 71 71 70 69 69 69 68 67 66 66 67 67 68 69 69 70 70 69 70 70 71 72 73 74 75 75 75 75 76 77 77 78 78 77 77 76 75 76 76 77 77 77 78 78 77 77
83 85 87 89 90 92 95 98 98 96 95 94 92 90 87 83 80 77 76 74 73 72 71 71 70 68 67 68 68 68 67 67 66 65 65 66 66 68 69 69 69 69 69 68 67 66 65 64 63 63 63 63 64 65 65 65 65 65 65 66 66 67 68 69 70 70 70 71 72 74 74 74 73 73 72 72 72 73 74 74 75 75 76 76 75 75
85 86 87 88 90 91 93 95 95 95 94 93 90 88 86 84 82 80 78 76 74 73 72 72 71 69 67 66 66 66 66 66 65 63 63 64 65 66 66 66 66 66 67 66 65 64 64 63 62 62 62 62 62 63 63 62 62 62 63 63 63 64 64 65 66 66 66 68 69 70 70 69 68 68 68 69 70 71 72 72 73 73 73 73 73 72
86 86 87 88 90 92 92 92 92 92 92 92 89 85 82 80 79 79 79 77 75 73 72 72 71 70 67 66 65 65 64 64 64 62 61 62 63 64 64 64 64 64 64 65 65 64 63 63 62 62 61 61 61 61 61 60 60 61 61 61 62 62 62 63 63 63 63 64 64 65 65 64 64 64 65 67 68 69 70 70 70 70 71 71 70 69
88 88 89 90 92 94 94 94 94 92 91 92 90 87 83 80 77 77 78 77 77 75 74 73 73 72 70 67 66 65 64 65 65 63 62 61 62 63 63 63 63 63 63 63 64 63 62 62 61 61 61 60 60 60 60 59 59 59 59 60 60 60 60 60 60 60 60 60 60 61 61 60 61 62 63 65 66 67 67 67 67 67 68 68 67 66
89 89 89 89 89 90 89 89 89 87 86 86 86 85 82 79 76 75 75 75 75 75 74 72 72 72 72 70 67 65 63 63 64 64 63 63 62 62 61 62 62 62 62 62 62 62 62 61 61 61 60 60 60 59 58 58 58 57 57 57 57 58 58 58 58 58 58 58 58 57 57 58 59 60 61 62 63 63 63 64 64 64 65 65 64 64
89 88 87 86 86 85 84 83 82 82 80 79 79 79 77 74 73 72 72 72 72 72 72 71 70 69 69 69 69 66 62 62 62 62 62 62 62 61 60 60 60 60 61 61 61 60 60 60 59 59 59 58 58 57 57 56 55 55 55 55 55 55 55 55 55 55 55 55 55 55 56 56 57 58 59 59 59 60 60 61 61 61 62 62 62 63
Wind_Direction
296 295 293 291 289 287 285 283 282 280 280 279 277 277 277 277 278 277 276 275 275 276 276 276 276 275 275 275 275 274 275 274 274 273 273 273 273 273 272 272 271 271 271 271 271 270 270 269 269 269 269 269 268 268 268 268 268 268 268 268 267 267 267 266 266 266 266 266 266 266 266 266 266 266 265 265 265 265 265 265 265 265 265 265 264 264
297 296 295 293 290 288 286 284 283 282 280 279 278 277 276 276 276 277 277 277 276 276 276 277 278 277 276 276 275 274 274 275 275 275 273 272 271 271 272 273 273 272 272 272 272 272 272 272 272 272 271 271 270 270 269 268 268 268 268 268 267 267 267 267 267 267 267 267 267 267 267 267 267 267 267 267 267 266 266 267 267 267 266 266 266 266
298 297 295 294 291 289 287 286 285 284 283 281 280 279 278 278 278 278 278 279 278 277 278 278 279 278 278 277 276 275 274 273 275 275 273 272 271 271 272 273 273 272 272 272 272 272 272 272 272 272 271 271 270 270 269 269 269 269 268 268 268 267 267 267 267 267 267 268 268 268 268 268 268 268 268 268 268 268 267 267 267 267 267 267 267 267
299 298 296 293 291 289 288 287 287 286 285 284 284 283 282 281 281 281 281 281 280 279 279 279 279 279 279 278 277 276 274 274 274 274 274 274 274 273 273 273 273 273 273 273 273 273 273 272 272 271 270 270 270 270 269 269 269 268 268 268 268 268 267 267 268 268 268 268 268 268 268 268 268 268 268 268 268 268 267 267 267 267 267 267 266 267
301 299 297 294 292 290 289 288 287 287 286 286 285 284 284 283 283 283 283 283 282 281 279 279 280 281 281 280 279 278 276 275 273 272 273 274 275 275 274 274 274 274 274 274 273 273 272 272 272 271 270 270 269 269 269 269 268 268 268 268 268 268 267 267 268 268 268 268 268 268 268 268 268 268 268 268 268 268 268 268 268 268 268 268 267 267
305 302 299 296 294 291 289 288 287 287 287 286 285 284 284 284 284 283 283 284 284 284 282 280 280 281 282 282 280 279 279 277 275 272 271 270 271 273 273 274 275 275 275 275 274 273 273 272 272 271 271 271 270 269 269 269 269 268 268 268 268 268 268 268 268 268 268 268 269 269 269 268 269 269 269 269 269 270 270 270 270 270 270 270 270 270
311 308 304 301 298 295 293 291 289 288 287 287 286 285 285 284 284 284 283 283 284 285 284 282 280 279 282 283 282 281 281 280 279 277 275 272 271 271 272 273 274 275 275 275 274 274 274 274 274 273 273 272 272 271 271 270 269 269 269 268 268 268 268 268 268 268 268 268 268 268 268 268 268 268 269 269 269 270 270 270 270 270 271 271 272 272
316 313 309 306 303 301 298 295 294 292 291 289 288 287 286 285 285 284 284 283 283 284 284 283 281 278 279 281 281 282 282 281 280 280 279 278 276 275 275 274 274 274 273 273 272 273 274 274 274 274 274 273 273 272 272 271 271 270 270 270 269 269 269 270 269 269 269 269 269 269 270 270 269 269 269 269 269 269 269 269 269 269 270 270 270 271
321 317 314 311 308 305 302 300 298 296 295 293 292 291 290 289 288 287 286 285 285 284 284 284 284 281 279 279 279 280 281 280 280 279 279 278 277 276 276 275 275 275 274 274 273 272 272 272 272 273 273 273 272 272 272 272 272 272 272 272 272 272 271 271 272 272 271 271 271 271 271 271 271 271 271 270 270 270 269 269 269 269 269 269 270 270
326 323 320 317 313 310 307 305 302 300 299 297 295 295 293 293 292 292 290 289 289 288 287 287 287 285 283 281 280 280 280 280 280 279 279 278 277 276 275 275 275 275 275 275 275 273 272 271 271 271 271 270 269 269 270 271 272 272 272 272 272 272 272 272 272 272 272 273 272 272 272 272 273 273 273 272 272 272 271 271 271 270 270 270 271 271
332 330 327 324 321 317 314 311 308 305 303 300 299 297 296 295 295 294 293 292 292 291 289 289 289 288 286 283 282 281 280 280 280 279 279 278 277 277 276 275 275 275 275 276 276 275 274 273 273 273 273 272 270 269 269 269 271 271 271 272 272 272 272 272 272 273 273 273 273 273 273 273 273 274 274 274 273 273 273 272 272 272 272 272 272 272
333 332 331 329 327 325 322 319 316 313 309 306 304 302 300 299 299 298 295 294 294 292 292 292 291 291 291 288 286 285 283 283 282 282 281 280 279 277 276 276 275 275 275 276 276 276 276 275 275 275 276 276 275 274 272 272 272 273 273 273 273 273 273 273 273 273 274 274 274 274 274 274 274 274 274 275 275 274 274 274 274 274 274 274 273 273
330 330 329 329 328 326 325 324 322 320 317 314 311 309 307 305 306 303 300 300 299 297 296 294 293 293 293 290 287 286 285 285 284 284 283 283 282 281 280 278 277 276 276 275 275 274 274 274 275 275 276 277 277 278 277 276 274 274 274 274 274 274 274 275 275 275 275 275 275 275 275 275 275 275 275 276 276 275 275 275 275 275 275 275 275 275
328 328 327 325 325 324 324 322 322 321 320 318 316 315 313 312 313 310 308 307 306 306 304 300 298 297 295 293 289 286 285 285 286 285 283 283 284 284 283 282 281 280 279 278 277 276 275 275 274 274 275 275 276 277 278 277 276 276 275 275 275 275 275 276 276 276 276 276 276 276 276 276 276 276 276 276 276 276 276 276 276 276 276 276 276 276
327 326 324 323 322 321 320 318 318 317 316 315 313 313 313 311 311 312 311 310 310 313 311 307 307 305 302 299 293 289 288 288 287 285 284 283 283 282 282 282 281 281 281 280 279 279 278 277 276 276 275 275 275 275 276 276 277 277 276 276 276 276 276 276 277 277 277 277 277 277 277 277 277 277 277 277 277 277 277 277 277 277 277 277 277 277
325 324 322 322 320 318 317 315 314 314 313 311 309 309 309 308 308 308 308 306 306 310 310 308 309 309 309 304 297 295 295 292 291 291 291 290 287 285 283 282 281 281 281 281 280 280 279 278 278 277 276 276 275 275 275 275 276 276 276 276 276 276 276 276 276 276 276 276 276 276 276 276 276 277 277 277 277 277 277 278 278 278 278 278 278 278
324 322 321 320 319 318 317 315 314 313 312 310 308 307 308 307 305 305 304 303 302 304 305 305 306 308 308 303 297 299 299 296 296 299 299 297 295 292 290 287 286 284 283 282 282 281 280 280 279 278 278 277 277 276 276 276 276 276 276 276 276 276 276 276 276 276 276 276 276 276 276 276 276 277 277 277 278 278 278 278 278 278 278 278 278 279
322 322 320 318 318 318 316 315 314 313 312 310 308 307 308 306 305 305 304 302 300 300 300 302 303 305 305 299 295 296 296 295 297 298 298 297 296 295 293 292 291 289 288 286 284 283 282 281 280 279 279 278 278 277 277 277 277 277 277 277 277 276 276 276 276 276 276 276 276 276 276 276 277 277 277 277 278 278 278 278 278 278 278 278 279 279
320 322 320 317 317 317 315 314 314 313 312 310 309 309 309 307 305 305 304 303 300 298 296 297 300 303 303 298 293 293 294 295 296 295 294 294 292 292 291 290 290 289 288 287 286 286 285 284 283 282 281 280 279 278 278 278 278 278 278 277 277 277 276 276 276 276 276 276 276 276 276 277 277 277 277 277 277 277 277 277 278 278 278 279 279 280
317 319 319 316 315 316 314 313 313 313 311 309 310 311 309 307 306 305 304 303 301 299 296 295 295 299 301 296 292 293 294 295 296 296 296 295 293 292 291 290 289 287 285 285 285 285 285 285 285 284 283 282 281 280 280 279 279 279 278 278 277 277 276 276 276 276 276 276 276 276 276 276 276 276 276 276 276 276 277 277 278 278 279 279 280 280
316 316 317 315 314 313 312 311 311 312 309 309 310 311 309 308 307 304 303 302 301 299 298 295 294 299 300 293 291 295 295 294 294 295 296 296 295 294 294 293 292 289 287 285 284 283 283 284 284 284 283 283 282 282 281 281 280 279 279 278 277 277 277 276 276 276 276 276 276 276 276 276 276 276 276 276 276 277 277 278 278 279 280 281 281 281
314 314 315 314 313 312 311 310 311 310 307 308 310 311 309 308 307 305 303 303 300 300 300 298 295 303 300 293 291 293 293 293 292 292 293 294 294 295 294 294 294 292 290 288 286 284 283 283 283 283 283 283 283 283 282 282 281 280 280 279 278 278 278 278 277 277 277 277 277 277 277 277 277 277 277 277 277 278 278 279 279 280 281 281 282 282
313 314 314 314 313 312 311 311 311 308 306 307 309 309 307 307 306 305 304 304 300 301 302 296 291 299 299 293 290 289 290 290 290 290 290 291 292 293 293 293 293 292 291 290 288 286 285 285 284 284 284 285 284 284 283 283 282 282 281 281 280 280 279 279 279 279 279 278 278 278 278 278 278 278 278 278 279 279 279 280 280 281 282 282 282 283
314 314 314 314 313 312 312 312 310 307 306 307 307 307 306 305 304 303 303 302 299 302 302 294 290 296 295 290 287 286 286 286 286 286 287 289 290 291 291 291 291 291 291 291 290 288 287 286 285 286 286 286 285 284 283 283 282 282 282 282 281 281 280 280 280 279 279 279 279 279 279 279 279 279 279 279 280 280 280 280 281 282 282 282 283 283
314 314 314 314 312 311 311 309 306 304 303 303 304 304 303 303 302 300 300 299 298 301 298 292 293 297 292 288 287 284 283 282 282 283 285 286 288 289 289 289 290 290 290 289 289 289 288 287 287 287 286 285 284 283 283 283 282 282 282 281 281 280 280 280 279 279 279 279 279 279 279 279 279 279 280 280 280 280 281 281 281 282 282 283 283 283
313 314 314 313 311 312 312 309 306 303 302 302 303 303 302 301 300 299 298 297 299 299 294 293 297 297 293 292 291 286 284 283 282 283 285 285 285 285 285 286 287 287 287 287 287 287 287 288 288 287 286 285 284 284 283 283 282 282 281 281 280 280 279 279 279 278 278 278 279 279 279 279 279 280 280 281 281 281 281 281 281 282 282 283 283 284
311 312 313 311 310 311 312 310 308 305 304 304 304 304 303 302 299 298 298 298 298 296 293 296 298 295 294 295 292 289 287 286 286 287 287 286 284 283 283 283 284 284 284 285 285 285 285 286 286 286 285 284 284 284 283 283 282 281 281 280 279 279 278 278 278 278 278 278 278 279 279 279 280 280 280 281 281 281 281 281 282 282 283 283 284 285
310 311 312 309 308 309 310 309 307 304 304 305 305 305 303 301 300 299 298 298 298 295 295 297 297 294 295 295 291 289 289 289 290 290 288 287 286 285 285 284 283 283 283 283 283 283 283 283 283 283 283 283 283 283 282 282 281 280 280 279 278 278 278 278 278 278 278 278 278 278 279 279 279 280 280 280 280 281 281 282 282 283 284 284 285 285
308 310 310 307 306 308 309 308 305 303 303 303 303 303 302 300 300 298 297 297 297 295 296 297 295 294 294 293 291 291 291 292 291 290 289 289 288 288 287 286 286 285 285 284 284 284 283 283 282 282 282 282 282 281 281 280 280 279 278 278 278 278 278 278 278 278 278 278 278 278 278 279 279 279 280 280 281 281 282 282 283 284 284 285 285 286
307 308 308 306 305 307 308 306 303 302 302 302 302 302 300 299 298 296 296 297 295 295 296 296 294 293 292 292 291 292 292 292 291 291 291 290 289 289 288 288 288 287 287 287 286 286 285 285 284 284 283 283 282 281 280 279 279 278 278 278 278 277 277 277 277 278 278 278 278 278 279 279 279 280 280 281 281 282 283 283 283 284 284 285 285 286
306 307 307 305 304 307 307 304 302 302 302 302 302 301 299 297 296 295 295 294 293 293 294 293 292 291 291 291 291 291 291 291 291 291 290 290 289 289 289 289 289 288 288 287 287 287 287 286 286 285 285 284 283 281 280 279 278 277 277 276 276 276 276 277 277 277 278 278 278 279 279 279 280 280 281 281 282 283 283 283 283 284 284 285 285 285
306 306 306 305 305 308 308 305 303 304 303 303 303 300 298 297 296 296 295 293 293 293 292 291 291 291 291 291 290 290 290 290 290 290 289 289 289 289 289 288 288 288 288 287 287 287 287 287 287 286 285 284 282 281 280 279 278 278 277 277 277 277 277 277 278 278 278 279 279 279 280 280 280 281 282 282 283 283 283 283 283 284 284 285 285 285
307 307 307 307 307 309 309 307 306 305 304 304 303 300 299 299 298 297 296 295 294 294 293 292 291 291 291 290 290 290 290 290 290 289 289 288 288 288 288 287 287 287 287 287 287 287 287 286 286 285 284 283 282 282 281 280 280 279 279 279 279 278 278 278 278 278 279 279 279 280 280 280 281 282 282 283 282 282 283 283 283 284 284 284 285 285
309 309 309 309 309 310 310 309 307 306 306 305 303 302 302 301 299 298 297 296 295 295 294 293 292 291 291 290 290 289 289 289 289 289 288 288 287 287 287 287 287 287 287 287 287 287 287 286 285 284 284 283 283 282 282 281 281 280 280 280 279 279 279 278 279 279 279 280 280 280 280 281 281 282 282 282 282 282 282 283 283 283 284 284 285 285
310 310 310 310 310 310 310 309 306 306 306 305 303 304 303 302 301 299 298 297 296 295 294 293 293 292 292 291 291 290 289 289 288 288 288 288 288 287 287 287 287 286 286 286 286 286 286 285 285 284 284 284 283 283 282 282 281 280 280 280 279 279 279 279 279 279 279 280 280 280 280 281 282 282 281 281 281 282 282 282 283 283 284 284 284 284
310 310 310 310 309 309 309 307 306 306 306 305 305 305 304 303 302 301 299 299 298 296 295 294 294 294 293 292 292 291 290 290 289 289 288 288 288 288 288 288 288 287 287 287 286 286 285 285 284 284 284 283 283 282 282 281 280 280 279 279 279 279 279 279 279 279 279 279 279 279 280 281 281 281 281 281 281 281 282 282 283 283 284 284 284 284
310 310 309 309 309 309 308 307 307 308 307 306 306 306 304 303 302 300 298 298 296 295 295 294 294 293 293 292 292 292 291 291 291 290 290 290 290 290 290 289 289 288 287 287 286 285 285 284 284 283 283 282 282 281 281 280 279 279 278 278 278 277 277 278 278 278 278 278 278 279 279 279 279 280 280 280 280 281 281 282 282 283 283 283 283 283
310 310 310 309 310 310 309 308 309 309 308 307 307 306 304 303 300 298 296 295 294 294 294 293 292 292 291 291 290 290 290 290 290 290 289 289 289 289 289 289 288 288 287 287 286 285 284 284 283 283 282 281 281 280 280 279 279 278 278 277 277 277 277 277 277 277 277 277 278 278 279 279 279 279 279 279 280 280 281 281 282 282 282 282 282 282
311 311 310 309 309 309 309 310 312 311 310 309 309 308 306 303 300 297 295 295 295 295 293 293 292 291 291 290 290 290 289 289 289 288 287 287 287 287 287 286 286 286 286 286 285 285 284 283 283 282 282 281 281 280 280 279 279 278 278 278 277 277 277 277 277 277 277 278 278 278 278 278 278 278 279 279 280 280 280 281 281 281 281 281 282 282
310 309 309 308 310 311 313 314 314 313 311 312 311 309 307 304 301 299 298 298 298 296 295 294 293 293 292 292 292 292 291 291 291 290 288 287 286 286 286 286 285 285 285 285 285 285 284 283 283 283 282 281 281 281 280 280 279 279 279 279 278 278 278 278 278 278 279 279 278 278 278 278 278 278 278 279 279 279 280 280 280 280 281 281 282 282
310 311 312 313 315 317 317 317 315 314 314 313 312 309 307 304 302 301 301 301 299 297 296 295 294 294 293 293 293 293 293 293 293 292 290 289 287 286 286 286 286 285 285 284 284 283 283 283 283 283 282 282 282 281 281 281 280 280 280 280 280 280 279 279 280 280 279 279 278 278 278 278 278 278 278 278 279 279 279 279 279 280 280 281 281 282
316 317 318 319 319 320 319 318 316 316 316 314 312 311 309 307 304 304 303 302 301 299 297 296 295 295 295 295 295 295 295 294 293 292 292 291 289 288 287 286 286 286 285 285 285 284 284 284 284 284 283 283 283 282 282 281 281 281 280 280 280 280 280 280 279 279 278 278 277 277 277 277 277 277 277 277 277 278 278 278 279 280 280 280 281 281
322 322 322 322 321 321 320 318 317 317 316 315 313 312 310 309 308 307 306 304 303 302 301 300 299 298 297 297 297 296 296 295 294 293 293 293 292 290 289 288 287 286 286 286 286 286 286 286 286 285 284 284 283 282 282 281 281 280 280 280 279 279 279 279 278 278 277 277 277 277 277 276 276 276 276 276 277 277 278 278 279 279 280 280 280 281
324 324 324 323 323 321 320 319 319 318 317 316 314 312 311 309 308 307 307 306 304 303 302 302 301 300 299 298 298 297 296 294 294 294 293 293 292 291 290 289 288 287 287 286 286 286 286 286 286 285 285 285 284 283 283 282 281 281 280 280 279 279 278 278 277 277 277 276 276 276 276 275 275 275 276 276 277 277 278 278 278 279 279 279 280 281
325 325 325 324 323 322 321 321 321 320 319 318 316 315 314 312 310 309 308 307 306 304 303 302 301 300 299 299 298 298 296 295 294 294 294 293 292 291 291 291 290 290 289 288 288 288 287 287 287 286 286 285 285 284 283 283 283 282 282 281 280 279 278 278 277 277 277 276 276 275 275 275 275 276 277 277 277 277 277 278 278 278 279 279 280 281
326 326 325 325 324 324 324 323 323 322 321 320 319 318 317 316 314 313 312 311 309 308 307 305 304 303 302 301 301 300 299 299 298 297 297 296 294 293 293 292 292 292 292 292 291 291 290 289 288 287 287 286 285 285 285 285 285 285 284 283 282 281 280 279 278 278 277 276 276 275 276 276 277 277 277 277 277 277 277 277 277 278 279 280 281 282
327 326 326 326 325 325 325 324 324 323 321 320 319 319 317 317 316 314 313 312 311 310 309 307 306 305 304 303 302 301 300 300 299 299 298 296 295 294 293 293 294 294 294 294 294 293 293 292 292 291 290 289 288 288 287 287 287 286 285 284 283 282 282 281 280 279 278 277 277 277 277 278 278 278 277 277 276 276 277 277 278 279 280 281 282 283
326 326 326 326 326 325 325 325 325 323 321 320 319 318 317 316 315 313 312 312 312 311 310 308 307 306 305 304 303 302 302 301 300 299 298 297 296 296 296 296 296 296 296 296 295 295 295 294 294 293 292 291 290 290 289 289 288 287 287 286 286 285 284 284 283 282 281 280 280 280 279 279 278 277 277 276 276 277 277 278 279 280 281 282 283 284
327 327 327 327 326 326 326 327 326 325 323 321 320 320 319 318 316 314 313 313 313 312 311 310 309 308 308 307 305 305 305 304 303 302 301 300 299 298 299 299 298 298 297 297 296 296 296 295 295 294 294 293 292 292 291 291 290 289 289 288 288 287 286 286 285 284 284 283 282 281 281 280 279 278 277 277 277 278 279 280 281 282 283 283 284 284
326 326 326 326 325 324 325 326 325 323 322 321 319 319 318 318 316 314 313 312 312 311 311 310 309 309 309 308 307 307 307 305 304 304 304 303 301 301 301 300 299 299 298 298 298 297 297 297 296 296 295 294 293 293 292 291 290 290 289 289 288 287 286 285 285 284 284 283 283 282 281 280 279 279 279 279 280 281 282 282 283 283 284 284 285 285
325 324 324 324 324 324 325 326 325 323 321 320 318 317 317 316 315 314 312 312 311 311 310 310 309 309 308 308 308 308 308 306 305 305 305 303 303 302 302 301 300 299 299 299 298 297 297 296 296 295 295 294 294 293 293 292 292 291 290 289 288 287 286 286 285 285 285 284 283 283 282 281 281 281 282 282 283 283 283 284 284 284 285 285 286 286
Height
10562 10559 10556 10554 10551 10549 10547 10546 10545 10543 10542 10541 10540 10538 10536 10535 10533 10532 10532 10532 10531 10529 10526 10526 10526 10520 10518 10519 10519 10519 10517 10514 10514 10515 10516 10514 10510 10506 10504 10503 10503 10503 10501 10500 10499 10497 10497 10497 10497 10498 10497 10496 10496 10496 10495 10493 10491 10491 10490 10490 10490 10488 10487 10486 10484 10484 10483 10482 10481 10480 10479 10479 10480 10480 10479 10478 10477 10477 10475 10474 10474 10473 10473 10473 10472 10472
10556 10553 10550 10547 10545 10543 10541 10540 10538 10537 10536 10535 10534 10533 10532 10530 10529 10526 10525 10525 10526 10524 10520 10521 10519 10513 10512 10512 10511 10513 10511 10507 10507 10508 10508 10506 10503 10500 10497 10496 10496 10496 10494 10493 10491 10490 10489 10489 10489 10489 10488 10487 10487 10486 10486 10484 10482 10482 10481 10479 10480 10478 10476 10475 10473 10472 10472 10472 10470 10469 10468 10468 10468 10468 10467 10466 10465 10465 10464 10462 10462 10461 10461 10460 10459 10458
10550 10547 10544 10542 10540 10538 10536 10534 10533 10531 10530 10529 10528 10527 10526 10525 10524 10522 10520 10519 10519 10519 10515 10515 10514 10506 10504 10505 10503 10505 10505 10502 10501 10500 10498 10498 10497 10495 10493 10490 10489 10488 10487 10486 10485 10483 10482 10482 10482 10480 10479 10478 10477 10476 10475 10475 10474 10472 10471 10469 10469 10469 10466 10465 10464 10462 10462 10462 10460 10459 10459 10458 10457 10456 10455 10454 10453 10453 10452 10451 10450 10449 10448 10447 10446 10445
10544 10541 10539 10537 10534 10533 10531 10529 10527 10526 10524 10524 10523 10521 10520 10519 10518 10516 10515 10513 10512 10512 10510 10510 10509 10500 10496 10497 10495 10496 10497 10496 10496 10493 10490 10490 10490 10489 10487 10484 10482 10481 10481 10480 10478 10476 10475 10474 10473 10472 10470 10469 10469 10468 10466 10466 10465 10463 10462 10460 10459 10459 10458 10456 10454 10453 10453 10452 10451 10450 10449 10448 10447 10446 10444 10443 10442 10441 10441 10440 10439 10438 10437 10436 10435 10434
10539 10536 10534 10531 10529 10527 10526 10524 10522 10521 10519 10518 10517 10516 10514 10513 10513 10511 10509 10507 10505 10505 10504 10505 10505 10495 10487 10488 10487 10486 10489 10490 10490 10488 10486 10484 10483 10482 10480 10478 10476 10474 10473 10472 10471 10469 10467 10466 10464 10463 10462 10462 10461 10460 10458 10457 10456 10455 10454 10452 10451 10450 10449 10447 10446 10444 10443 10442 10441 10440 10439 10438 10437 10436 10434 10433 10432 10431 10430 10428 10427 10426 10425 10423 10423 10422
10534 10531 10528 10526 10524 10522 10521 10519 10517 10516 10514 10512 10511 10510 10509 10508 10507 10506 10504 10502 10499 10497 10495 10498 10501 10493 10480 10478 10479 10478 10479 10481 10481 10482 10481 10479 10478 10476 10474 10471 10469 10468 10465 10464 10463 10461 10460 10458 10455 10453 10453 10453 10452 10451 10450 10449 10447 10446 10446 10445 10443 10441 10440 10438 10437 10435 10434 10433 10432 10431 10430 10428 10427 10426 10425 10423 10422 10420 10419 10418 10417 10415 10413 10412 10410 10409
10529 10526 10524 10521 10519 10517 10516 10513 10512 10510 10508 10506 10505 10504 10503 10502 10501 10499 10498 10497 10495 10491 10486 10488 10494 10492 10479 10468 10468 10470 10470 10470 10470 10472 10472 10472 10472 10470 10467 10464 10462 10460 10458 10456 10454 10452 10451 10450 10447 10445 10444 10444 10443 10442 10441 10440 10439 10438 10436 10436 10434 10432 10431 10429 10428 10427 10425 10425 10423 10422 10420 10418 10417 10416 10415 10414 10412 10410 10409 10408 10407 10405 10404 10402 10399 10398
10525 10522 10519 10516 10514 10512 10510 10509 10506 10505 10503 10501 10499 10498 10496 10495 10494 10492 10491 10490 10490 10486 10479 10478 10483 10487 10479 10464 10459 10461 10461 10461 10461 10462 10463 10462 10463 10462 10458 10457 10455 10453 10450 10448 10447 10445 10444 10441 10438 10436 10435 10436 10434 10433 10432 10431 10429 10428 10427 10426 10425 10423 10422 10419 10418 10417 10416 10415 10414 10412 10410 10408 10407 10405 10405 10404 10402 10400 10399 10398 10396 10395 10393 10392 10390 10388
10521 10518 10515 10512 10510 10508 10505 10504 10501 10499 10498 10495 10494 10492 10490 10489 10488 10486 10485 10482 10483 10481 10473 10470 10472 10476 10474 10460 10453 10455 10452 10452 10454 10454 10455 10454 10454 10453 10451 10449 10447 10444 10441 10439 10438 10438 10436 10433 10430 10427 10426 10426 10426 10424 10423 10421 10420 10419 10417 10416 10415 10413 10412 10409 10407 10406 10405 10405 10403 10402 10400 10397 10396 10394 10393 10392 10391 10389 10388 10386 10385 10383 10382 10381 10379 10378
10518 10514 10511 10508 10505 10503 10501 10499 10496 10494 10492 10490 10488 10486 10484 10483 10482 10480 10478 10476 10476 10475 10468 10465 10463 10465 10466 10454 10447 10450 10446 10444 10447 10446 10447 10446 10445 10445 10444 10442 10439 10436 10433 10430 10429 10428 10427 10425 10421 10418 10416 10416 10417 10416 10414 10412 10410 10409 10407 10406 10405 10403 10401 10399 10398 10396 10395 10394 10392 10391 10389 10386 10385 10383 10381 10380 10379 10377 10376 10374 10372 10371 10370 10369 10368 10367
10514 10511 10508 10505 10502 10499 10496 10494 10492 10489 10487 10485 10482 10481 10478 10477 10477 10474 10471 10470 10470 10467 10463 10460 10455 10454 10456 10447 10440 10442 10440 10438 10439 10438 10438 10439 10438 10437 10435 10434 10431 10428 10425 10422 10420 10418 10416 10415 10412 10408 10405 10404 10405 10407 10407 10405 10402 10399 10398 10396 10395 10393 10391 10389 10387 10386 10384 10383 10381 10379 10377 10375 10373 10371 10369 10368 10367 10365 10363 10361 10359 10358 10357 10356 10355 10354
10512 10508 10504 10501 10498 10495 10492 10490 10488 10485 10482 10480 10477 10476 10472 10470 10471 10468 10464 10463 10463 10460 10457 10454 10449 10445 10445 10438 10431 10432 10431 10429 10430 10430 10429 10430 10429 10428 10427 10425 10422 10419 10416 10413 10410 10409 10407 10405 10402 10399 10395 10392 10391 10393 10395 10396 10393 10390 10387 10386 10385 10383 10380 10378 10376 10375 10373 10371 10369 10367 10365 10363 10361 10359 10357 10355 10354 10352 10350 10347 10345 10344 10343 10342 10340 10340
10509 10506 10502 10499 10496 10492 10489 10486 10484 10481 10477 10474 10472 10471 10468 10465 10466 10463 10457 10456 10455 10453 10451 10447 10443 10441 10437 10428 10422 10422 10420 10418 10420 10422 10421 10420 10420 10419 10418 10415 10412 10409 10407 10404 10400 10399 10398 10395 10393 10390 10387 10383 10380 10379 10381 10382 10382 10380 10377 10375 10374 10371 10369 10367 10365 10363 10361 10360 10357 10356 10353 10351 10349 10347 10345 10343 10341 10339 10336 10334 10332 10330 10329 10327 10326 10325
10503 10502 10499 10496 10492 10489 10486 10483 10480 10477 10473 10470 10466 10465 10463 10461 10461 10459 10454 10452 10449 10448 10446 10441 10437 10437 10432 10421 10412 10410 10411 10409 10411 10413 10412 10412 10411 10410 10408 10405 10402 10399 10396 10393 10390 10388 10387 10386 10384 10382 10379 10376 10373 10370 10368 10368 10368 10368 10367 10364 10362 10360 10357 10355 10353 10351 10349 10347 10345 10343 10341 10339 10337 10335 10333 10331 10329 10326 10323 10321 10319 10317 10315 10313 10312 10310
10501 10497 10495 10492 10489 10485 10482 10479 10477 10474 10470 10466 10462 10460 10458 10455 10455 10455 10451 10448 10447 10445 10441 10435 10432 10430 10427 10417 10401 10396 10401 10402 10402 10402 10402 10404 10404 10402 10400 10397 10394 10390 10387 10384 10381 10378 10376 10375 10374 10372 10370 10368 10365 10362 10359 10357 10356 10355 10355 10353 10351 10349 10346 10344 10342 10339 10337 10335 10333 10331 10329 10327 10325 10322 10321 10319 10317 10314 10311 10309 10306 10304 10301 10300 10298 10296
10499 10493 10489 10487 10484 10481 10478 10474 10472 10470 10467 10463 10458 10455 10453 10449 10448 10449 10447 10443 10442 10443 10439 10432 10428 10423 10421 10413 10392 10383 10390 10393 10393 10394 10393 10393 10393 10392 10391 10389 10386 10383 10379 10376 10373 10370 10367 10365 10363 10361 10359 10357 10355 10353 10350 10348 10346 10344 10343 10342 10340 10338 10336 10334 10331 10329 10327 10324 10321 10320 10318 10316 10313 10311 10309 10307 10305 10302 10299 10296 10293 10291 10288 10286 10284 10282
10498 10491 10484 10481 10478 10474 10471 10467 10465 10463 10461 10458 10454 10450 10448 10445 10442 10442 10442 10439 10436 10439 10438 10431 10426 10420 10416 10409 10391 10377 10377 10380 10384 10386 10384 10381 10381 10380 10379 10378 10377 10374 10371 10368 10365 10362 10359 10356 10354 10351 10349 10347 10345 10343 10340 10338 10336 10334 10332 10330 10328 10327 10324 10322 10320 10318 10315 10313 10310 10308 10306 10304 10302 10299 10297 10295 10292 10289 10286 10283 10280 10278 10275 10273 10271 10269
10494 10490 10482 10476 10473 10469 10464 10460 10457 10453 10452 10450 10446 10443 10441 10438 10436 10433 10433 10432 10429 10431 10433 10429 10425 10418 10411 10404 10391 10379 10373 10371 10375 10379 10378 10375 10372 10371 10370 10368 10366 10364 10361 10358 10355 10352 10350 10347 10345 10343 10340 10338 10335 10333 10330 10328 10326 10324 10322 10319 10317 10315 10313 10310 10308 10306 10304 10301 10299 10297 10295 10292 10290 10287 10284 10282 10280 10277 10274 10271 10267 10264 10262 10259 10258 10255
10488 10488 10482 10472 10467 10464 10457 10453 10450 10445 10442 10441 10438 10435 10431 10428 10427 10425 10423 10422 10419 10421 10424 10424 10422 10416 10406 10396 10385 10378 10372 10366 10366 10369 10370 10369 10366 10364 10363 10359 10357 10355 10351 10348 10345 10342 10339 10336 10335 10332 10330 10327 10325 10323 10320 10318 10316 10314 10311 10309 10306 10303 10301 10299 10296 10294 10292 10289 10287 10285 10282 10280 10276 10274 10272 10270 10267 10264 10261 10258 10254 10251 10248 10246 10244 10241
10479 10482 10480 10472 10465 10460 10453 10447 10444 10439 10433 10430 10429 10427 10421 10416 10415 10414 10414 10411 10406 10409 10413 10414 10416 10414 10403 10390 10379 10373 10367 10360 10357 10358 10358 10358 10356 10356 10354 10350 10347 10345 10341 10338 10335 10332 10329 10326 10324 10321 10318 10316 10314 10311 10310 10308 10305 10303 10301 10298 10295 10292 10289 10287 10284 10281 10279 10277 10275 10272 10269 10266 10263 10261 10259 10257 10255 10252 10248 10245 10240 10236 10234 10233 10230 10225
10470 10472 10474 10470 10463 10458 10451 10442 10439 10434 10426 10422 10422 10419 10412 10406 10402 10400 10403 10401 10394 10395 10398 10399 10407 10410 10397 10385 10376 10368 10359 10351 10348 10348 10348 10347 10346 10346 10344 10340 10336 10333 10330 10328 10325 10323 10320 10317 10314 10311 10308 10305 10302 10300 10298 10296 10294 10291 10289 10286 10282 10279 10277 10274 10271 10269 10267 10264 10262 10259 10256 10253 10250 10247 10245 10243 10241 10238 10235 10230 10225 10221 10221 10219 10214 10209
10461 10462 10464 10464 10459 10454 10447 10439 10434 10428 10421 10417 10416 10412 10404 10398 10391 10384 10388 10391 10385 10384 10385 10382 10394 10404 10391 10378 10373 10363 10351 10342 10336 10337 10338 10337 10337 10336 10334 10330 10325 10320 10317 10314 10313 10312 10309 10307 10304 10301 10297 10294 10291 10288 10285 10283 10281 10278 10275 10272 10269 10266 10263 10260 10257 10255 10253 10250 10247 10245 10242 10239 10236 10233 10231 10229 10227 10224 10220 10215 10210 10207 10206 10202 10197 10193
10452 10451 10453 10454 10453 10448 10442 10435 10429 10420 10414 10413 10411 10407 10399 10392 10385 10373 10371 10375 10374 10377 10375 10366 10378 10395 10383 10369 10366 10358 10346 10334 10324 10323 10327 10328 10327 10326 10324 10320 10314 10308 10304 10300 10298 10298 10297 10295 10292 10289 10287 10283 10279 10276 10272 10269 10267 10264 10261 10258 10255 10252 10249 10246 10243 10240 10237 10235 10232 10230 10227 10224 10221 10219 10216 10213 10212 10210 10205 10199 10195 10193 10190 10185 10181 10178
10444 10440 10439 10441 10443 10443 10438 10431 10422 10412 10406 10405 10404 10400 10393 10387 10380 10368 10363 10360 10359 10370 10365 10346 10359 10382 10371 10356 10356 10349 10338 10326 10316 10313 10318 10319 10318 10315 10313 10308 10302 10297 10292 10287 10283 10282 10281 10281 10280 10278 10275 10272 10267 10263 10259 10257 10254 10251 10248 10244 10241 10238 10234 10231 10228 10224 10222 10219 10217 10215 10212 10208 10206 10203 10200 10198 10197 10194 10189 10183 10180 10177 10173 10169 10166 10162
10436 10432 10428 10425 10426 10431 10433 10427 10417 10407 10400 10398 10398 10393 10386 10381 10372 10362 10356 10348 10347 10361 10351 10328 10342 10363 10355 10344 10343 10337 10326 10316 10308 10307 10310 10311 10309 10305 10301 10296 10290 10285 10280 10275 10271 10268 10267 10266 10266 10265 10262 10259 10254 10250 10247 10244 10241 10238 10234 10231 10227 10223 10219 10216 10212 10209 10206 10204 10201 10199 10196 10193 10190 10187 10184 10183 10181 10177 10173 10169 10165 10161 10157 10154 10151 10146
10427 10426 10421 10414 10409 10413 10417 10414 10407 10398 10392 10391 10391 10386 10379 10373 10363 10354 10347 10338 10337 10342 10333 10323 10329 10335 10335 10334 10325 10316 10309 10302 10299 10301 10300 10299 10297 10293 10289 10284 10279 10273 10267 10263 10259 10257 10255 10254 10252 10250 10247 10244 10241 10237 10234 10230 10226 10223 10220 10216 10212 10208 10205 10201 10197 10194 10191 10189 10186 10184 10180 10177 10174 10171 10169 10167 10164 10160 10157 10154 10150 10145 10142 10139 10135 10130
10417 10419 10417 10406 10401 10402 10401 10398 10391 10381 10377 10378 10377 10374 10368 10360 10350 10342 10335 10330 10327 10316 10311 10323 10321 10305 10313 10322 10305 10294 10291 10287 10288 10288 10285 10283 10280 10277 10275 10272 10266 10261 10255 10251 10248 10246 10245 10243 10240 10237 10233 10231 10227 10223 10220 10216 10212 10209 10204 10201 10197 10193 10189 10186 10182 10179 10176 10173 10171 10168 10165 10161 10158 10156 10154 10151 10147 10144 10141 10139 10134 10130 10126 10123 10119 10115
10405 10410 10411 10398 10392 10395 10393 10389 10380 10369 10364 10364 10363 10361 10355 10344 10335 10328 10320 10319 10315 10294 10290 10312 10309 10288 10294 10300 10284 10276 10276 10274 10275 10271 10265 10264 10261 10258 10257 10254 10250 10246 10241 10237 10235 10233 10232 10230 10226 10224 10221 10218 10214 10210 10207 10203 10198 10194 10189 10185 10181 10177 10174 10170 10166 10163 10160 10158 10156 10153 10149 10146 10144 10141 10139 10136 10132 10128 10126 10123 10119 10115 10110 10106 10103 10099
10395 10399 10402 10389 10382 10387 10386 10378 10369 10360 10355 10354 10352 10349 10342 10332 10323 10313 10306 10306 10299 10280 10275 10289 10287 10277 10279 10274 10262 10260 10260 10259 10258 10252 10247 10245 10241 10238 10237 10232 10230 10227 10223 10220 10218 10216 10215 10212 10210 10208 10207 10204 10200 10196 10193 10188 10184 10179 10174 10170 10166 10162 10158 10154 10150 10148 10145 10142 10140 10137 10134 10131 10129 10126 10123 10120 10116 10113 10111 10107 10104 10100 10095 10091 10087 10083
10387 10388 10389 10378 10371 10378 10380 10367 10355 10349 10345 10343 10342 10336 10327 10320 10312 10301 10295 10292 10284 10271 10268 10268 10263 10261 10261 10254 10247 10247 10244 10240 10237 10233 10230 10226 10221 10219 10216 10212 10210 10207 10204 10202 10199 10196 10194 10192 10191 10190 10189 10187 10183 10180 10177 10173 10168 10163 10159 10155 10150 10146 10142 10138 10135 10132 10129 10126 10124 10121 10119 10116 10113 10110 10107 10105 10101 10098 10095 10091 10088 10084 10079 10076 10072 10069
10379 10377 10377 10366 10357 10367 10372 10356 10341 10337 10332 10329 10329 10323 10312 10305 10300 10293 10284 10277 10270 10264 10261 10254 10243 10242 10244 10239 10234 10233 10229 10225 10221 10216 10212 10207 10203 10200 10197 10195 10192 10188 10186 10184 10180 10178 10175 10173 10172 10172 10170 10168 10165 10162 10159 10155 10151 10148 10144 10139 10135 10131 10127 10123 10120 10116 10113 10111 10108 10105 10103 10100 10097 10095 10092 10089 10086 10083 10079 10075 10071 10068 10064 10061 10058 10054
10370 10364 10364 10353 10342 10352 10357 10340 10327 10324 10318 10314 10311 10303 10295 10289 10284 10279 10271 10261 10256 10252 10247 10240 10230 10226 10228 10226 10221 10217 10213 10210 10206 10200 10194 10190 10186 10183 10180 10178 10175 10171 10169 10167 10164 10162 10159 10156 10155 10153 10152 10150 10146 10144 10141 10137 10134 10131 10127 10123 10119 10115 10112 10108 10104 10100 10097 10095 10092 10089 10087 10083 10081 10079 10076 10074 10070 10066 10062 10058 10055 10052 10049 10046 10042 10038
10359 10351 10348 10338 10326 10332 10337 10322 10309 10306 10302 10298 10292 10281 10278 10274 10266 10260 10253 10245 10241 10236 10230 10224 10218 10212 10210 10209 10207 10204 10200 10195 10191 10184 10177 10173 10171 10168 10164 10161 10158 10156 10153 10150 10148 10145 10143 10141 10138 10135 10133 10131 10128 10126 10123 10120 10118 10114 10109 10106 10103 10099 10096 10092 10088 10085 10082 10079 10076 10073 10070 10067 10065 10063 10061 10057 10053 10049 10046 10043 10039 10036 10034 10030 10026 10023
10345 10336 10330 10322 10310 10311 10315 10305 10291 10287 10283 10279 10272 10265 10262 10257 10248 10242 10237 10229 10224 10218 10212 10206 10201 10197 10193 10190 10188 10188 10186 10182 10177 10168 10160 10155 10154 10153 10149 10145 10141 10139 10137 10134 10131 10129 10126 10123 10119 10117 10115 10112 10110 10108 10106 10103 10101 10097 10093 10089 10086 10083 10080 10076 10073 10070 10067 10063 10060 10057 10054 10052 10050 10048 10044 10040 10036 10033 10030 10027 10024 10021 10018 10015 10011 10007
10331 10323 10315 10309 10298 10294 10296 10289 10276 10273 10270 10261 10254 10252 10246 10239 10231 10223 10217 10213 10209 10202 10195 10187 10182 10179 10175 10171 10168 10167 10167 10167 10162 10153 10143 10139 10136 10133 10130 10130 10127 10123 10120 10118 10115 10112 10108 10104 10101 10099 10097 10094 10091 10089 10088 10086 10083 10079 10076 10072 10069 10066 10063 10060 10057 10054 10051 10048 10044 10041 10039 10037 10035 10031 10027 10023 10020 10017 10015 10011 10009 10006 10002 9999 9995 9991
10319 10311 10301 10295 10289 10282 10280 10274 10264 10260 10255 10245 10240 10238 10231 10223 10216 10204 10195 10193 10190 10183 10177 10170 10164 10160 10156 10152 10148 10145 10145 10147 10145 10137 10127 10122 10119 10113 10109 10109 10108 10105 10103 10100 10097 10094 10091 10086 10083 10081 10079 10076 10073 10070 10068 10066 10064 10061 10059 10055 10052 10049 10045 10043 10041 10038 10035 10031 10028 10026 10024 10022 10019 10015 10011 10007 10004 10002 9999 9996 9993 9990 9987 9983 9980 9976
10310 10301 10290 10282 10278 10271 10263 10258 10253 10248 10241 10233 10229 10226 10218 10211 10204 10191 10180 10175 10171 10164 10160 10155 10149 10144 10138 10133 10130 10126 10124 10125 10126 10122 10111 10103 10100 10095 10090 10087 10085 10083 10082 10080 10077 10075 10072 10069 10066 10063 10060 10057 10054 10051 10048 10046 10044 10042 10040 10037 10034 10031 10028 10026 10024 10021 10018 10015 10014 10012 10010 10006 10002 9998 9995 9992 9989 9987 9984 9982 9978 9975 9972 9969 9965 9961
10302 10293 10282 10271 10266 10260 10249 10242 10240 10233 10224 10220 10217 10213 10205 10197 10190 10178 10166 10162 10158 10152 10146 10142 10136 10130 10125 10120 10117 10113 10110 10108 10110 10108 10099 10090 10086 10080 10074 10070 10066 10062 10061 10059 10057 10055 10052 10049 10046 10044 10042 10038 10035 10032 10029 10027 10025 10022 10020 10018 10016 10013 10011 10010 10007 10003 10001 10001 9999 9997 9993 9989 9986 9983 9980 9977 9974 9972 9970 9967 9963 9960 9957 9954 9950 9946
10292 10284 10275 10264 10257 10251 10241 10232 10227 10217 10206 10202 10200 10195 10188 10178 10169 10159 10149 10145 10145 10139 10130 10126 10121 10114 10109 10105 10102 10099 10096 10093 10095 10095 10088 10079 10075 10069 10061 10056 10053 10048 10044 10040 10036 10034 10033 10032 10028 10026 10023 10020 10017 10014 10011 10008 10006 10003 10001 9999 9997 9995 9994 9991 9988 9987 9987 9986 9984 9980 9976 9973 9970 9967 9964 9962 9960 9958 9955 9951 9948 9945 9942 9939 9935 9932
10284 10275 10266 10256 10248 10240 10230 10222 10215 10202 10191 10187 10182 10175 10169 10159 10148 10138 10131 10130 10130 10123 10113 10107 10103 10097 10091 10087 10084 10082 10079 10074 10074 10077 10074 10067 10062 10056 10048 10042 10040 10036 10032 10027 10020 10015 10014 10014 10012 10010 10006 10003 9999 9997 9994 9991 9988 9986 9984 9982 9980 9978 9976 9973 9971 9972 9971 9969 9966 9963 9960 9957 9954 9952 9949 9947 9945 9942 9939 9936 9933 9930 9928 9924 9921 9917
10274 10265 10253 10241 10233 10227 10217 10207 10199 10188 10180 10175 10167 10157 10151 10145 10134 10123 10118 10116 10113 10108 10100 10093 10087 10082 10077 10073 10070 10068 10066 10060 10054 10054 10056 10052 10048 10044 10037 10029 10025 10021 10017 10014 10009 10003 9999 9999 9997 9994 9990 9987 9983 9981 9978 9975 9972 9970 9968 9966 9964 9962 9959 9957 9956 9956 9954 9951 9948 9946 9943 9940 9938 9936 9934 9932 9930 9927 9923 9920 9918 9916 9913 9910 9906 9903
10255 10248 10237 10226 10218 10214 10205 10192 10182 10175 10166 10158 10150 10139 10130 10125 10119 10113 10109 10103 10096 10092 10089 10083 10076 10070 10065 10061 10058 10055 10053 10049 10041 10037 10037 10035 10031 10028 10024 10018 10012 10008 10002 9998 9993 9989 9987 9987 9985 9981 9977 9973 9970 9966 9964 9960 9958 9956 9953 9951 9949 9946 9944 9942 9941 9939 9937 9934 9932 9929 9927 9925 9923 9921 9919 9917 9915 9912 9909 9906 9904 9902 9899 9896 9892 9889
10235 10228 10221 10212 10203 10198 10192 10179 10168 10161 10153 10144 10137 10128 10117 10107 10100 10097 10095 10090 10081 10074 10071 10069 10064 10058 10053 10050 10047 10043 10038 10033 10028 10024 10022 10019 10014 10010 10007 10003 9999 9995 9991 9986 9981 9975 9973 9973 9972 9968 9964 9961 9957 9953 9950 9947 9944 9942 9940 9938 9935 9932 9930 9928 9925 9923 9921 9919 9916 9914 9912 9910 9908 9906 9904 9902 9900 9897 9895 9892 9890 9888 9885 9882 9879 9876
10220 10212 10206 10200 10190 10182 10176 10168 10157 10148 10138 10129 10122 10117 10109 10100 10092 10085 10082 10080 10074 10064 10057 10054 10052 10047 10041 10036 10035 10032 10027 10021 10017 10013 10010 10006 10001 9996 9992 9988 9985 9982 9979 9975 9971 9966 9962 9960 9959 9955 9951 9948 9944 9940 9937 9933 9931 9930 9927 9925 9922 9919 9916 9913 9911 9909 9907 9904 9902 9900 9897 9895 9893 9891 9890 9888 9886 9884 9881 9879 9877 9874 9871 9868 9866 9864
10210 10201 10193 10188 10180 10169 10157 10149 10142 10133 10122 10110 10101 10096 10092 10087 10082 10075 10069 10065 10062 10056 10049 10043 10040 10037 10032 10025 10021 10019 10015 10010 10007 10004 9999 9994 9989 9983 9978 9974 9970 9966 9964 9961 9958 9954 9951 9949 9947 9944 9940 9936 9932 9928 9924 9921 9919 9917 9915 9912 9909 9905 9902 9900 9897 9895 9893 9891 9888 9885 9883 9882 9880 9879 9877 9876 9874 9871 9868 9866 9863 9860 9858 9856 9854 9852
10200 10193 10184 10175 10167 10158 10145 10132 10123 10115 10105 10094 10084 10076 10070 10066 10062 10058 10054 10048 10044 10040 10035 10029 10025 10023 10020 10015 10009 10004 10000 9996 9993 9991 9987 9981 9976 9970 9965 9961 9957 9952 9948 9946 9944 9941 9938 9936 9934 9931 9928 9924 9920 9916 9913 9910 9908 9905 9902 9899 9896 9893 9890 9887 9885 9882 9880 9878 9875 9872 9871 9870 9868 9867 9865 9863 9861 9858 9855 9853 9850 9848 9846 9844 9842 9840
10189 10182 10176 10167 10156 10147 10139 10128 10117 10106 10094 10084 10077 10068 10059 10053 10047 10041 10037 10034 10030 10026 10021 10015 10011 10008 10006 10002 9997 9993 9988 9984 9980 9979 9975 9968 9963 9958 9953 9950 9946 9942 9937 9933 9931 9929 9925 9922 9920 9917 9915 9912 9907 9904 9901 9899 9896 9893 9890 9887 9884 9881 9878 9875 9873 9870 9868 9865 9863 9861 9860 9859 9858 9856 9853 9850 9848 9845 9843 9841 9839 9836 9834 9832 9831 9829
10182 10175 10169 10162 10150 10138 10129 10121 10112 10101 10086 10074 10068 10064 10056 10049 10041 10031 10023 10019 10016 10013 10009 10003 9997 9995 9993 9990 9985 9981 9978 9973 9969 9967 9965 9958 9951 9947 9943 9939 9935 9931 9926 9922 9918 9916 9914 9911 9908 9905 9902 9899 9896 9893 9890 9888 9885 9881 9878 9875 9872 9869 9867 9864 9861 9859 9857 9855 9853 9851 9849 9848 9846 9844 9841 9838 9835 9833 9831 9829 9828 9825 9823 9821 9820 9818
10171 10164 10157 10151 10141 10130 10119 10108 10099 10092 10079 10062 10052 10047 10043 10038 10032 10023 10013 10006 10001 9997 9994 9989 9983 9978 9977 9976 9973 9969 9965 9960 9955 9952 9951 9947 9941 9936 9932 9928 9924 9920 9916 9912 9908 9904 9902 9899 9896 9894 9891 9887 9884 9881 9879 9876 9873 9870 9867 9864 9861 9859 9856 9853 9851 9848 9846 9844 9842 9840 9839 9837 9835 9832 9829 9826 9824 9822 9820 9819 9817 9814 9812 9810 9809 9807
10159 10153 10148 10143 10136 10128 10119 10108 10097 10089 10081 10066 10051 10040 10034 10029 10024 10016 10008 10001 9993 9987 9982 9979 9973 9967 9962 9959 9959 9958 9956 9949 9943 9939 9937 9933 9929 9926 9923 9918 9914 9909 9905 9902 9898 9894 9891 9888 9885 9882 9879 9876 9873 9871 9868 9866 9863 9861 9858 9855 9852 9849 9846 9843 9841 9839 9837 9834 9832 9830 9828 9826 9823 9821 9818 9816 9814 9812 9810 9808 9806 9804 9801 9799 9798 9796
10150 10144 10139 10135 10129 10120 10111 10103 10092 10083 10075 10065 10052 10040 10031 10024 10018 10010 10002 9996 9989 9981 9975 9970 9966 9961 9955 9948 9944 9944 9945 9941 9935 9931 9927 9922 9917 9915 9913 9909 9905 9901 9897 9892 9889 9885 9882 9879 9876 9873 9870 9867 9864 9861 9859 9856 9853 9851 9848 9844 9842 9839 9836 9834 9832 9830 9827 9825 9822 9820 9818 9815 9813 9811 9809 9807 9805 9803 9800 9798 9796 9794 9792 9789 9787 9784